Date,TemperatureHighF,TemperatureAvgF,TemperatureLowF,DewpointHighF,DewpointAvgF,DewpointLowF,HumidityHigh,HumidityAvg,HumidityLow,PressureMaxIn,PressureMinIn,WindSpeedMaxMPH,WindSpeedAvgMPH,GustSpeedMaxMPH,PrecipitationSumIn
2013-1-1,31,22,12,25,8,1,90,53,42,29.89,29.68,9,4,23,0.00
2013-1-2,22,13,0,7,2,-5,91,61,44,30.03,29.85,8,3,19,0.00
2013-1-3,23,12,-1,6,2,-6,82,63,41,30.11,29.98,6,1,8,0.00
2013-1-4,33,26,0,26,20,-2,92,79,72,29.90,29.73,8,3,14,0.00
2013-1-5,35,28,14,26,15,10,85,59,44,30.28,29.86,10,4,17,0.00
2013-1-6,33,25,18,24,21,15,92,85,68,30.08,29.92,3,1,6,0.02
2013-1-7,26,19,12,17,14,9,93,79,63,30.42,30.15,10,3,16,0.00
2013-1-8,42,31,18,27,24,17,96,77,54,30.37,30.19,8,2,19,0.01
2013-1-9,39,31,12,35,27,11,97,87,77,30.42,29.88,6,1,10,0.00
2013-1-10,43,39,28,28,26,22,79,59,51,30.52,30.09,13,6,27,0.00
2013-1-11,36,30,17,31,23,16,96,75,54,30.55,30.27,4,1,7,0.00
2013-1-12,41,38,33,41,37,33,100,99,95,30.22,30.11,3,0,6,0.03
2013-1-13,46,41,36,46,41,36,100,100,100,30.16,29.96,6,2,11,0.01
2013-1-14,58,45,38,52,38,26,100,78,41,30.21,29.87,8,3,13,0.01
2013-1-15,38,33,26,28,25,21,90,72,59,30.33,30.25,4,1,7,0.00
2013-1-16,30,30,29,30,29,28,99,98,96,30.14,29.79,6,2,8,0.00
2013-1-17,40,28,16,36,19,1,100,72,42,30.15,29.81,9,4,14,0.28
2013-1-18,18,12,6,1,-4,-11,77,51,34,30.42,30.28,7,2,13,0.00
2013-1-19,39,33,29,32,25,18,88,70,59,30.15,29.92,8,2,21,0.00
2013-1-20,46,40,30,36,26,12,78,59,39,29.78,29.44,11,7,22,0.00
2013-1-21,25,21,13,15,5,-1,77,51,32,30.06,29.88,4,2,9,0.00
2013-1-22,17,12,9,12,4,-6,91,71,51,30.04,29.80,10,4,17,0.00
2013-1-23,6,3,0,-12,-15,-16,55,43,37,30.11,30.05,9,4,17,0.00
2013-1-24,12,8,-2,-7,-10,-14,58,45,33,30.13,29.95,9,4,16,0.00
2013-1-25,20,14,5,5,-1,-5,74,52,35,30.22,30.08,7,2,16,0.00
2013-1-26,21,15,8,1,-2,-6,69,47,34,30.14,29.99,8,4,16,0.00
2013-1-27,24,17,8,3,-1,-4,67,46,35,30.43,30.21,9,4,19,0.00
2013-1-28,26,21,6,20,9,-5,95,65,27,30.41,30.09,5,1,7,0.00
2013-1-29,31,27,18,29,25,17,96,91,82,30.23,30.13,3,1,5,0.09
2013-1-30,51,47,40,51,47,40,100,100,99,29.97,29.47,10,6,19,0.28
2013-1-31,56,55,54,55,54,54,98,98,97,29.20,28.96,25,20,38,0.12
2013-2-1,29,24,17,11,7,3,55,48,38,30.03,29.68,8,4,21,0.00
2013-2-2,25,22,11,14,9,2,73,57,45,30.21,30.06,7,2,11,0.00
2013-2-3,27,25,21,19,17,15,91,71,61,30.01,29.71,11,6,15,0.00
2013-2-4,29,24,17,14,6,0,74,47,36,29.85,29.65,9,4,22,0.00
2013-2-5,25,16,4,10,2,-3,82,56,31,30.04,29.97,5,1,8,0.00
2013-2-6,36,27,17,25,15,-4,79,62,34,30.25,29.93,7,3,13,0.00
2013-2-7,20,14,8,-2,-7,-11,56,38,25,30.60,30.42,8,4,14,0.00
2013-2-8,16,12,9,15,9,-1,94,88,60,30.53,29.92,15,9,24,0.00
2013-2-9,11,11,11,9,9,9,92,92,92,29.71,29.68,24,21,43,0.00
2013-2-10,35,24,11,12,7,3,80,53,26,30.36,30.30,5,1,11,0.00
2013-2-11,40,28,7,40,26,5,100,94,76,30.24,29.61,6,1,8,0.35
2013-2-12,44,38,30,35,32,29,100,77,62,29.77,29.55,5,2,11,0.00
2013-2-13,44,36,28,29,27,24,91,70,47,29.82,29.74,4,1,10,0.00
2013-2-14,41,33,22,25,22,19,92,66,44,30.01,29.81,8,2,14,0.00
2013-2-15,44,35,20,38,31,18,98,88,72,29.99,29.91,9,3,17,0.00
2013-2-16,35,32,27,33,30,22,100,93,81,29.95,29.80,12,5,17,0.01
2013-2-17,22,21,19,21,14,6,94,76,56,29.48,29.18,13,10,27,0.00
2013-2-18,31,23,14,9,5,0,58,45,38,30.03,29.62,12,6,27,0.00
2013-2-19,42,36,23,42,23,3,99,63,28,30.11,29.64,8,3,14,0.25
2013-2-20,38,33,28,31,24,18,91,69,57,29.64,29.50,7,3,15,0.08
2013-2-21,32,26,21,25,17,10,79,67,55,30.11,29.71,9,5,18,0.00
2013-2-22,38,32,24,24,22,21,93,69,52,30.39,30.30,11,4,15,0.00
2013-2-23,38,33,26,34,30,23,98,91,73,30.31,30.04,8,2,11,0.02
2013-2-24,31,30,28,31,30,28,100,100,99,29.91,29.79,8,4,10,0.00
2013-2-25,38,31,23,32,29,22,100,93,74,30.24,30.03,7,2,12,0.28
2013-2-26,43,35,28,34,30,27,100,83,56,30.38,30.28,5,1,7,0.00
2013-2-27,38,34,31,34,32,31,100,93,82,30.16,29.72,11,6,17,0.04
2013-2-28,42,37,32,42,36,31,100,98,95,29.61,29.54,8,3,14,0.57
2013-3-1,34,33,32,32,31,30,99,94,87,29.68,29.57,10,5,15,0.01
2013-3-2,41,35,31,34,32,30,99,90,67,29.66,29.60,9,2,15,0.08
2013-3-3,42,38,32,36,32,29,100,82,70,29.61,29.53,5,2,9,0.09
2013-3-4,34,32,30,30,28,25,94,84,74,29.67,29.51,7,4,13,0.02
2013-3-5,44,39,34,35,34,33,94,83,69,30.11,29.87,12,7,17,0.00
2013-3-6,38,35,32,33,30,27,91,81,71,30.27,30.19,12,8,22,0.00
2013-3-7,36,34,32,28,26,26,80,73,67,30.19,30.09,14,11,22,0.00
2013-3-8,45,38,30,26,25,23,78,59,42,30.20,30.06,17,12,28,0.01
2013-3-9,47,37,26,27,25,23,90,63,40,30.38,30.23,12,6,20,0.00
2013-3-10,41,34,21,32,29,20,98,81,66,30.44,30.32,7,3,11,0.00
2013-3-11,42,40,36,40,37,34,96,91,84,30.27,30.16,10,6,16,0.00
2013-3-12,50,47,43,48,46,43,99,94,87,30.13,29.80,14,8,23,0.44
2013-3-13,49,43,32,46,37,29,100,79,62,29.74,29.66,8,3,11,0.02
2013-3-14,40,33,22,30,23,10,99,67,46,29.75,29.61,9,4,17,0.00
2013-3-15,35,28,17,20,13,6,84,55,35,29.81,29.61,7,3,14,0.01
2013-3-16,37,31,24,21,15,11,72,51,36,29.88,29.76,7,4,11,0.00
2013-3-17,32,26,16,17,6,1,89,44,33,30.32,29.95,10,5,21,0.00
2013-3-18,37,28,12,22,11,3,77,50,24,30.45,30.30,6,3,12,0.00
2013-3-19,31,28,23,30,27,22,99,97,95,30.16,29.68,11,7,23,0.05
2013-3-20,36,30,21,30,26,20,96,83,64,29.73,29.61,6,3,12,0.12
2013-3-21,39,31,23,23,20,17,93,65,42,29.78,29.62,7,2,12,0.02
2013-3-22,39,33,25,21,19,16,79,57,42,29.66,29.59,8,3,13,0.00
2013-3-23,41,35,22,25,22,17,80,62,47,29.66,29.49,10,5,23,0.00
2013-3-24,45,38,27,28,26,24,89,63,47,29.79,29.72,9,4,17,0.00
2013-3-25,43,37,28,32,29,26,94,74,58,29.76,29.60,11,4,15,0.00
2013-3-26,48,42,32,28,26,24,75,54,42,29.73,29.59,13,5,19,0.00
2013-3-27,45,41,32,38,34,26,98,79,56,29.87,29.73,9,4,19,0.10
2013-3-28,50,43,32,38,34,30,98,73,50,29.98,29.91,6,2,12,0.00
2013-3-29,55,48,34,39,33,29,91,58,43,30.01,29.94,8,3,20,0.00
2013-3-30,55,43,28,35,28,17,97,61,23,30.09,29.98,7,2,13,0.00
2013-3-31,51,42,22,39,29,19,96,63,30,30.13,29.89,12,5,21,0.00
2013-4-1,50,43,35,44,40,24,99,88,64,29.68,29.50,11,4,20,0.59
2013-4-2,38,33,26,20,16,11,77,50,34,29.84,29.72,8,4,20,0.00
2013-4-3,43,37,29,20,15,12,65,42,29,30.03,29.82,9,5,20,0.00
2013-4-4,50,41,30,36,21,9,80,47,22,30.22,29.99,11,6,17,0.00
2013-4-5,51,45,38,37,32,24,81,61,42,29.87,29.65,10,6,18,0.00
2013-4-6,40,33,26,16,9,5,58,38,25,30.35,29.99,11,6,19,0.00
2013-4-7,46,41,25,40,32,18,86,70,40,30.34,29.97,18,10,25,0.00
2013-4-8,58,51,39,41,36,34,97,60,43,30.15,29.97,11,4,22,0.00
2013-4-9,46,42,38,44,41,38,100,95,89,30.04,29.90,6,2,10,0.38
2013-4-10,55,46,41,48,44,41,100,94,76,30.00,29.90,5,1,8,0.26
2013-4-11,52,45,40,43,29,17,100,57,27,30.18,29.87,10,4,17,0.05
2013-4-12,37,34,33,33,27,17,99,78,49,30.28,29.91,7,3,11,0.27
2013-4-13,45,40,33,40,37,32,98,88,76,29.93,29.82,7,3,11,0.11
2013-4-14,51,43,35,43,39,34,100,87,57,30.18,29.93,8,1,12,0.08
2013-4-15,51,43,29,42,38,29,100,83,68,30.44,30.33,9,4,15,0.00
2013-4-16,50,47,39,47,42,38,98,84,68,30.40,29.97,17,9,25,0.02
2013-4-17,60,53,38,38,32,26,71,46,31,30.36,30.09,11,4,19,0.00
2013-4-18,50,44,28,38,32,24,97,66,40,30.50,30.20,10,5,16,0.00
2013-4-19,62,54,46,58,52,44,100,95,84,30.07,29.65,16,8,24,0.00
2013-4-20,56,51,44,53,39,27,100,66,41,30.14,29.61,8,3,18,0.28
2013-4-21,50,43,31,27,23,18,80,47,30,30.70,30.41,9,4,16,0.00
2013-4-22,48,41,26,36,27,18,95,62,31,30.83,30.69,9,4,14,0.00
2013-4-23,44,39,28,41,37,27,98,92,81,30.59,30.22,9,4,14,0.03
2013-4-24,62,50,42,53,47,42,99,90,72,30.00,29.79,10,6,17,0.05
2013-4-25,62,55,41,50,36,28,99,53,29,30.28,29.88,8,3,17,0.07
2013-4-26,55,49,35,38,34,31,92,58,42,30.45,30.40,8,4,12,0.00
2013-4-27,59,50,31,44,40,31,100,70,51,30.43,30.32,9,3,15,0.00
2013-4-28,63,52,32,46,37,30,100,61,32,30.36,30.26,9,3,14,0.00
2013-4-29,61,53,34,49,43,34,100,72,46,30.30,30.23,9,3,12,0.00
2013-4-30,65,54,34,48,38,27,100,58,27,30.39,30.31,8,3,13,0.00
2013-5-1,63,54,32,46,37,29,100,56,30,30.48,30.44,8,3,14,0.00
2013-5-2,62,51,37,51,41,34,100,72,45,30.53,30.42,10,3,16,0.00
2013-5-3,63,50,34,49,42,33,99,76,56,30.57,30.40,7,3,11,0.00
2013-5-4,61,48,36,45,40,36,100,75,48,30.42,30.34,9,4,15,0.00
2013-5-5,57,50,31,44,40,31,100,71,55,30.34,30.27,9,4,12,0.00
2013-5-6,60,50,33,49,44,32,100,84,63,30.30,30.19,10,4,15,0.00
2013-5-7,67,56,45,55,51,45,100,86,61,30.20,30.12,10,4,17,0.00
2013-5-8,71,63,49,64,58,49,100,86,72,30.26,30.16,10,4,16,0.05
2013-5-9,59,54,51,58,54,51,100,99,95,30.05,29.92,5,2,11,1.14
2013-5-10,69,58,50,62,56,50,100,92,75,29.99,29.92,6,2,10,0.00
2013-5-11,60,57,52,58,56,52,100,98,92,29.86,29.70,10,6,16,0.20
2013-5-12,65,58,52,60,55,45,100,92,74,29.72,29.54,6,2,12,0.05
2013-5-13,58,51,41,36,33,30,78,51,38,30.01,29.82,8,4,18,0.01
2013-5-14,56,51,42,43,35,30,86,56,41,30.04,29.95,9,4,18,0.00
2013-5-15,59,53,34,50,38,26,97,61,30,30.04,29.73,12,6,23,0.18
2013-5-16,78,65,49,58,48,40,100,60,29,29.79,29.57,8,4,14,0.00
2013-5-17,63,56,44,48,42,38,90,63,42,30.21,29.87,14,4,20,0.00
2013-5-18,60,52,39,48,44,39,100,75,57,30.36,30.28,9,4,13,0.00
2013-5-19,61,53,48,52,49,46,99,85,67,30.39,30.25,8,4,13,0.08
2013-5-20,71,60,50,64,58,49,100,93,77,30.25,29.93,5,2,17,0.25
2013-5-21,51,50,48,50,49,48,99,98,95,30.08,29.96,6,2,11,0.04
2013-5-22,55,52,48,53,51,48,100,97,93,30.01,29.93,6,2,10,0.06
2013-5-23,60,56,48,60,56,48,100,97,92,29.94,29.83,6,3,12,0.09
2013-5-24,62,58,51,62,57,50,100,99,96,29.84,29.66,11,4,18,0.08
2013-5-25,51,48,46,51,48,46,100,99,96,29.76,29.67,14,9,21,0.12
2013-5-26,55,49,43,48,44,40,100,84,63,29.99,29.64,8,4,17,0.12
2013-5-27,67,57,40,44,40,35,94,56,30,30.17,29.98,8,3,17,0.26
2013-5-28,68,60,42,49,43,38,100,57,34,30.25,30.21,9,3,15,0.54
2013-5-29,55,54,52,55,54,52,100,100,100,30.20,30.03,6,2,11,0.18
2013-5-30,84,71,54,69,63,54,100,77,51,30.04,29.97,5,1,10,0.35
2013-5-31,86,76,55,72,65,55,100,72,55,30.06,29.89,7,2,11,0.00
2013-6-1,85,76,59,73,67,59,100,73,58,29.92,29.81,8,3,14,0.00
2013-6-2,76,71,62,69,65,61,98,83,72,29.82,29.69,11,5,21,0.09
2013-6-3,71,64,59,67,62,58,100,94,83,29.83,29.72,8,3,13,0.07
2013-6-4,65,60,48,53,46,42,100,62,46,30.05,29.81,8,4,20,0.00
2013-6-5,70,62,56,51,46,40,83,58,37,30.18,30.09,7,4,13,0.00
2013-6-6,68,61,50,55,50,41,100,71,39,30.23,30.17,8,3,13,0.00
2013-6-7,60,55,52,54,50,46,100,85,62,30.14,29.97,6,3,11,0.46
2013-6-8,69,60,53,62,57,53,100,91,75,29.95,29.64,8,4,17,0.51
2013-6-9,71,65,58,62,60,57,100,83,70,30.11,30.05,6,2,12,0.04
2013-6-10,69,61,51,59,56,49,100,83,50,30.24,30.10,5,2,9,0.03
2013-6-11,55,54,54,54,54,54,100,98,97,29.95,29.57,9,4,18,0.25
2013-6-12,61,59,56,59,57,55,99,94,86,29.76,29.54,8,4,17,0.15
2013-6-13,69,61,51,58,54,47,100,80,48,29.80,29.75,5,2,9,0.01
2013-6-14,74,62,53,59,55,51,100,80,49,29.75,29.66,5,2,11,0.00
2013-6-15,77,65,48,53,49,43,99,61,32,29.89,29.74,6,2,12,0.00
2013-6-16,74,66,55,58,56,53,98,72,51,29.91,29.72,7,2,12,0.00
2013-6-17,78,69,57,66,63,57,100,81,56,29.87,29.76,7,2,14,0.30
2013-6-18,66,62,54,58,56,52,100,82,63,30.00,29.90,3,0,7,0.00
2013-6-19,74,64,52,57,51,46,99,64,39,30.12,29.95,7,3,13,0.00
2013-6-20,74,64,46,57,52,45,100,68,36,30.27,30.19,6,2,11,0.00
2013-6-21,78,68,52,61,57,51,100,72,45,30.24,30.18,6,2,10,0.00
2013-6-22,79,69,56,67,64,56,100,86,60,30.21,30.11,4,1,7,0.04
2013-6-23,73,68,63,68,66,62,100,91,78,30.15,29.97,5,2,9,0.17
2013-6-24,90,78,65,75,70,65,100,79,51,29.94,29.81,5,1,11,0.00
2013-6-25,86,78,66,74,70,66,99,77,60,29.85,29.71,5,2,10,0.20
2013-6-26,76,68,58,72,66,58,100,94,85,29.88,29.72,9,2,16,1.16
2013-6-27,66,59,55,62,58,55,100,97,88,29.90,29.84,6,2,12,0.15
2013-6-28,67,61,57,67,61,56,100,100,99,29.77,29.55,9,3,16,0.53
2013-6-29,70,65,62,68,65,62,100,98,91,29.68,29.56,8,3,17,0.02
2013-6-30,78,69,62,73,67,62,100,93,81,29.94,29.73,6,3,10,0.00
2013-7-1,76,70,63,73,69,63,100,96,86,30.11,29.96,2,0,5,0.20
2013-7-2,65,61,59,65,61,59,100,100,100,30.23,30.12,6,2,10,0.16
2013-7-3,78,67,58,72,65,58,100,93,81,30.22,30.10,5,1,9,0.04
2013-7-4,88,80,64,78,74,64,100,81,67,30.17,30.05,5,2,9,0.00
2013-7-5,88,80,66,77,73,66,100,79,60,30.12,29.99,7,2,15,0.00
2013-7-6,89,82,69,76,73,66,100,74,59,30.03,29.92,3,1,8,0.00
2013-7-7,88,81,65,75,70,63,93,71,50,29.97,29.90,5,1,9,0.00
2013-7-8,73,70,66,71,66,61,99,89,75,30.07,29.94,7,2,10,0.07
2013-7-9,70,65,62,68,64,61,100,96,91,30.14,30.10,4,1,9,0.02
2013-7-10,67,64,61,66,64,61,100,97,90,30.06,29.80,7,2,10,0.05
2013-7-11,80,73,67,74,70,67,100,92,70,29.95,29.78,5,1,8,0.15
2013-7-12,74,67,63,63,60,59,87,78,64,30.16,30.06,7,5,12,0.01
2013-7-21,75,71,61,63,60,55,96,70,52,30.03,29.97,8,3,10,0.00
2013-7-22,72,67,59,67,61,56,100,82,62,30.06,29.96,5,2,9,0.00
2013-7-23,69,66,61,68,66,61,100,100,98,29.83,29.55,4,1,8,1.11
2013-7-24,82,72,61,74,66,54,100,83,67,29.96,29.60,6,2,13,0.01
2013-7-25,72,63,56,63,57,50,98,80,65,30.13,30.02,8,2,16,0.04
2013-7-26,69,65,62,66,64,61,99,95,89,30.06,29.90,9,5,18,0.12
2013-7-27,80,74,64,70,66,63,97,77,64,30.04,29.99,6,2,11,0.00
2013-7-28,72,67,63,69,66,63,100,96,86,30.06,30.02,5,2,10,0.04
2013-7-29,75,68,62,70,66,62,100,94,82,30.09,30.00,5,2,10,0.29
2013-7-30,80,71,61,67,63,58,100,79,49,30.07,30.01,5,1,10,0.01
2013-7-31,79,70,55,65,61,55,100,74,52,30.13,30.05,7,2,11,0.00
2013-8-1,77,72,62,69,66,62,100,83,66,30.03,29.92,7,4,13,0.00
2013-8-2,77,67,63,70,65,62,100,94,72,29.84,29.76,4,1,8,0.91
2013-8-3,76,67,58,68,63,58,100,88,68,29.81,29.73,5,1,8,0.04
2013-8-4,77,67,54,64,60,54,100,80,51,29.84,29.74,4,1,10,0.12
2013-8-5,72,63,52,56,53,46,98,71,51,30.04,29.84,6,2,14,0.00
2013-8-6,75,68,48,60,55,48,100,67,48,30.17,30.08,6,2,11,0.00
2013-8-7,74,68,51,65,62,51,100,83,58,30.20,30.14,6,2,12,0.00
2013-8-8,73,68,61,70,66,61,100,95,87,30.11,30.02,6,3,12,0.19
2013-8-9,70,68,66,70,68,66,100,100,97,29.98,29.73,9,4,21,0.74
2013-8-10,79,72,58,70,60,50,100,69,40,29.99,29.77,5,2,10,0.00
2013-8-11,77,69,53,60,57,53,100,69,49,30.06,29.98,5,2,8,0.00
2013-8-12,78,69,55,65,61,55,100,77,51,30.00,29.91,6,1,10,0.00
2013-8-13,73,66,55,69,63,55,100,90,75,29.88,29.71,7,2,13,0.02
2013-8-14,76,68,61,68,60,50,100,78,48,29.87,29.61,6,2,17,0.00
2013-8-15,75,67,52,61,56,50,95,70,49,30.08,29.97,4,1,7,0.00
2013-8-16,76,67,54,64,59,54,100,77,51,30.18,30.10,6,1,9,0.00
2013-8-17,78,68,52,63,58,52,100,74,49,30.27,30.23,6,2,10,0.00
2013-8-18,76,66,50,64,60,50,100,82,58,30.28,30.06,4,1,7,0.00
2013-8-19,84,75,57,66,64,57,100,71,51,30.00,29.89,4,1,10,0.00
2013-8-20,83,75,64,69,65,62,100,72,56,30.08,30.02,5,1,9,0.00
2013-8-21,76,66,59,69,64,59,100,91,74,30.13,30.00,3,1,7,0.00
2013-8-22,83,75,61,72,68,61,100,79,64,29.96,29.77,6,3,11,0.00
2013-8-23,77,70,60,63,57,52,86,65,46,30.14,29.82,9,4,17,0.00
2013-8-24,77,65,48,57,52,47,100,66,38,30.32,30.23,5,1,9,0.00
2013-8-25,78,65,48,61,56,48,100,74,47,30.37,30.18,6,2,11,0.00
2013-8-26,77,69,61,69,65,61,99,89,76,30.06,29.87,4,1,10,0.12
2013-8-27,83,73,59,71,67,59,100,82,63,29.91,29.84,5,1,7,0.00
2013-8-28,80,71,62,71,66,62,100,85,64,30.00,29.88,6,2,10,0.02
2013-8-29,67,64,56,64,60,55,97,89,83,30.12,30.05,8,3,11,0.01
2013-8-30,76,70,60,68,65,60,100,85,74,29.97,29.79,5,2,11,0.00
2013-8-31,82,72,64,72,68,64,99,90,68,29.83,29.78,5,2,10,0.02
2013-9-1,81,73,67,74,70,67,100,90,71,29.92,29.77,5,1,9,0.00
2013-9-2,68,65,62,68,65,62,100,100,100,29.92,29.75,13,3,19,2.54
2013-9-3,76,70,66,72,68,66,100,95,81,29.78,29.71,5,1,8,0.08
2013-9-4,79,71,57,66,62,57,100,75,53,29.88,29.80,5,2,9,0.00
2013-9-5,66,58,49,57,51,46,98,79,53,30.13,29.92,7,2,13,0.27
2013-9-6,66,57,42,54,47,39,100,73,41,30.23,30.06,6,2,11,0.00
2013-9-7,72,63,48,63,56,47,100,81,58,30.03,29.81,4,1,9,0.00
2013-9-8,66,59,49,60,50,41,99,75,49,30.06,29.71,8,2,15,0.17
2013-9-9,63,58,42,56,50,42,98,74,53,30.22,30.12,6,3,12,0.00
2013-9-10,64,62,56,62,60,54,100,93,85,30.12,30.03,6,2,11,0.00
2013-9-11,84,74,62,76,70,62,100,89,74,30.04,29.89,5,2,10,0.00
2013-9-12,74,68,65,70,67,65,100,98,88,29.93,29.68,6,2,8,0.30
2013-9-13,64,64,64,64,64,64,100,100,100,29.65,29.63,0,0,1,0.03
2013-9-15,62,58,55,57,55,53,99,89,73,30.06,30.02,4,1,6,0.00
2013-9-16,64,56,46,58,52,40,100,85,70,30.25,30.01,9,2,14,0.01
2013-9-17,65,53,37,52,44,36,98,73,47,30.42,30.30,8,2,13,0.00
2013-9-18,70,60,40,56,50,40,100,70,42,30.29,30.11,4,1,8,0.00
2013-9-19,73,60,41,58,52,41,100,75,50,30.14,30.03,4,1,8,0.36
2013-9-20,75,60,44,60,53,44,100,80,53,30.13,30.04,5,1,9,0.00
2013-9-21,67,62,56,63,60,56,100,93,86,30.00,29.78,7,5,17,0.00
2013-9-22,69,63,51,66,58,48,100,87,63,29.77,29.58,11,3,22,0.32
2013-9-23,57,52,45,45,43,41,87,72,64,29.95,29.81,8,4,19,0.00
2013-9-24,55,52,46,46,44,42,90,76,67,29.91,29.84,7,2,15,0.00
2013-9-25,62,56,48,52,48,45,91,74,61,29.98,29.88,8,3,14,0.00
2013-9-26,64,58,50,53,51,48,93,77,67,30.14,30.02,9,4,14,0.00
2013-9-27,70,61,50,58,54,49,99,79,59,30.25,30.19,7,3,11,0.00
2013-9-28,71,58,45,58,52,45,100,83,54,30.35,30.28,6,2,9,0.00
2013-9-29,64,54,43,58,50,42,100,88,59,30.26,30.14,4,1,7,0.01
2013-9-30,66,54,43,56,51,43,100,89,65,30.14,29.99,3,1,5,0.00
2013-10-1,74,61,42,60,54,42,100,80,50,29.96,29.83,6,2,10,0.00
2013-10-2,79,68,49,64,59,49,100,75,53,29.89,29.75,4,1,12,0.00
2013-10-3,74,62,46,57,51,46,100,72,44,30.07,29.99,5,1,11,0.00
2013-10-4,70,60,44,61,53,44,100,79,56,30.10,30.03,4,0,7,0.00
2013-10-5,62,56,46,50,48,45,98,76,58,30.17,30.10,3,0,5,0.00
2013-10-6,55,51,47,49,44,40,98,78,59,30.30,30.23,6,2,11,0.00
2013-10-7,68,62,54,67,62,54,100,99,95,30.11,29.82,12,6,25,0.05
2013-10-8,61,54,39,46,43,39,97,67,50,30.39,30.12,6,2,11,0.00
2013-10-9,61,50,35,48,42,35,100,78,50,30.51,30.38,5,1,8,0.00
2013-10-10,62,51,34,51,45,34,100,83,58,30.36,30.23,4,1,6,0.00
2013-10-11,67,58,47,60,53,47,100,85,62,30.19,30.13,5,1,7,0.00
2013-10-12,59,54,49,54,50,48,100,89,76,30.43,30.25,6,2,9,0.01
2013-10-13,58,52,40,50,47,39,98,84,64,30.48,30.42,4,1,7,0.00
2013-10-14,59,51,36,51,46,36,100,85,65,30.38,30.26,6,2,10,0.00
2013-10-15,65,58,52,56,53,51,99,84,68,30.30,30.22,5,2,7,0.00
2013-10-16,59,57,54,56,54,52,99,92,79,30.17,29.92,7,1,10,0.00
2013-10-17,67,59,49,60,56,49,100,90,75,29.85,29.74,4,1,6,0.00
2013-10-18,67,60,49,59,53,46,100,80,52,29.83,29.59,6,2,10,0.19
2013-10-19,62,56,39,51,47,39,99,75,56,29.94,29.78,6,2,7,0.00
2013-10-20,61,55,45,54,41,34,96,61,38,29.95,29.67,6,2,11,0.01
2013-10-21,60,51,34,50,44,33,99,79,51,30.10,30.01,6,2,9,0.00
2013-10-22,60,55,47,55,52,46,98,90,78,29.90,29.70,10,3,11,0.23
2013-10-23,53,45,33,45,39,33,100,80,59,29.77,29.60,3,1,6,0.00
2013-10-24,52,45,32,36,33,29,99,64,44,29.81,29.67,7,3,14,0.00
2013-10-25,49,42,31,37,32,27,95,68,52,30.10,29.92,6,2,11,0.00
2013-10-26,51,45,25,39,35,25,99,70,53,30.12,29.87,8,3,14,0.00
2013-10-27,56,49,41,43,37,31,91,65,54,30.00,29.78,5,2,10,0.06
2013-10-28,55,46,37,40,34,26,88,64,53,30.35,30.01,7,4,12,0.00
2013-10-29,48,36,23,31,26,21,98,70,35,30.47,30.37,2,0,5,0.00
2013-10-30,50,38,27,35,29,25,99,74,40,30.30,30.18,4,1,6,0.01
2013-10-31,57,45,26,57,44,25,100,97,90,30.24,29.84,9,2,13,0.25
2013-11-1,65,60,57,61,57,53,100,91,83,29.60,29.36,14,7,19,0.34
2013-11-2,64,54,38,50,47,38,100,78,53,29.73,29.57,4,1,7,0.00
2013-11-3,43,38,32,32,25,22,77,59,46,30.38,30.01,12,6,18,0.00
2013-11-4,40,32,23,23,21,19,94,65,43,30.72,30.60,10,3,14,0.00
2013-11-5,46,37,24,35,32,23,98,81,62,30.73,30.53,7,2,10,0.00
2013-11-6,53,47,30,50,44,30,100,89,77,30.43,30.03,11,5,15,0.00
2013-11-7,57,52,41,56,49,32,98,89,68,29.83,29.63,8,4,12,0.05
2013-11-8,46,40,31,30,27,25,83,60,46,29.98,29.81,7,3,10,0.00
2013-11-9,45,38,28,27,24,22,89,61,41,30.13,30.06,6,2,11,0.00
2013-11-10,43,39,33,41,38,33,100,95,89,29.92,29.72,2,0,3,0.02
2013-11-11,47,40,36,34,32,30,88,72,56,30.03,29.86,5,2,14,0.00
2013-11-12,36,31,28,30,20,17,79,61,54,30.11,29.93,6,3,11,0.00
2013-11-13,34,28,22,17,15,13,79,58,45,30.24,30.13,7,2,10,0.00
2013-11-14,48,37,27,30,26,22,94,66,44,30.08,29.99,4,1,7,0.00
2013-11-15,51,39,24,35,29,23,99,73,38,30.16,30.10,5,1,9,0.00
2013-11-16,52,39,30,42,34,30,100,85,62,30.35,30.25,6,1,6,0.00
2013-11-17,53,48,39,53,46,39,100,93,82,30.36,29.95,10,3,16,0.05
2013-11-18,62,55,42,59,49,40,100,83,54,29.62,29.48,17,5,19,0.20
2013-11-19,40,36,32,29,21,18,65,55,49,30.20,29.72,9,5,17,0.00
2013-11-20,39,31,21,19,16,13,86,56,34,30.64,30.40,8,2,11,0.00
2013-11-21,44,33,18,27,23,15,96,70,31,30.64,30.38,5,1,7,0.00
2013-11-22,38,35,29,36,32,25,99,90,73,30.25,29.82,3,0,4,0.02
2013-11-23,40,34,24,32,21,16,95,60,38,29.82,29.68,9,4,15,0.00
2013-11-24,24,22,20,11,6,3,63,50,45,29.95,29.73,11,8,32,0.00
2013-11-25,31,22,17,19,6,1,76,49,33,30.33,30.17,7,3,12,0.00
2013-11-26,33,30,27,31,29,25,98,94,86,30.33,30.17,5,1,9,0.06
2013-11-27,59,53,40,59,53,39,100,99,96,29.72,29.15,18,10,28,1.93
2013-11-28,33,28,22,23,13,8,73,54,41,30.37,29.71,8,4,17,0.00
2013-11-29,26,22,16,13,10,6,87,61,44,30.74,30.48,7,2,10,0.00
2013-11-30,29,23,10,21,14,7,94,71,40,30.83,30.50,5,1,8,0.00
2013-12-1,33,32,29,33,31,27,100,98,91,30.31,30.11,7,2,8,0.35
2013-12-2,37,34,34,37,34,34,100,100,100,30.01,29.93,9,5,11,0.56
2013-12-3,42,36,30,40,35,29,100,97,91,29.93,29.86,7,2,11,0.00
2013-12-4,42,33,24,31,28,24,98,80,63,30.21,29.97,6,1,8,0.00
2013-12-5,47,36,24,47,36,24,100,99,96,30.28,29.93,4,1,6,0.01
2013-12-6,44,41,37,43,39,31,100,95,79,30.12,29.88,5,0,5,0.08
2013-12-7,37,32,25,32,20,11,97,60,47,30.40,30.13,7,3,13,0.01
2013-12-8,28,25,22,19,12,9,85,60,44,30.59,30.52,7,2,9,0.00
2013-12-9,32,27,23,31,24,15,98,91,66,30.41,29.88,6,3,8,0.00
2013-12-10,32,27,21,31,26,19,99,98,92,29.90,29.73,3,0,6,0.00
2013-12-11,29,24,17,22,19,15,95,82,69,30.14,30.06,6,2,11,0.03
2013-12-12,17,12,4,9,2,-2,91,67,44,30.26,30.07,7,2,10,0.00
2013-12-13,24,17,7,14,6,-3,78,62,51,30.37,29.93,7,4,12,0.00
2013-12-14,12,9,1,8,-4,-8,90,57,41,30.65,30.47,7,3,9,0.00
2013-12-15,17,13,9,14,11,7,95,91,85,29.78,29.42,16,7,25,0.00
2013-12-16,25,16,1,17,4,-2,95,61,40,30.20,29.79,8,3,15,0.00
2013-12-17,13,6,-11,9,0,-14,93,78,57,30.33,30.04,7,3,11,0.00
2013-12-18,28,18,6,24,16,4,96,93,87,30.04,29.85,9,3,14,0.03
2013-12-19,32,24,15,27,22,14,97,91,81,30.08,29.93,5,1,7,0.00
2013-12-20,37,32,23,35,31,23,99,96,89,30.13,29.91,3,0,4,0.11
2013-12-21,33,31,27,33,30,27,100,98,95,29.97,29.84,6,2,8,0.13
2013-12-22,31,28,26,31,27,25,99,98,97,30.09,29.89,9,4,14,0.29
2013-12-23,32,31,26,32,30,26,100,100,99,30.13,29.98,4,1,6,0.00
2013-12-24,27,22,14,26,20,12,98,92,88,30.18,30.07,0,0,1,0.00
2013-12-25,17,11,5,14,8,3,94,88,83,30.57,30.35,0,0,1,0.00
2013-12-26,24,20,12,24,19,11,98,96,94,30.42,30.09,0,0,1,0.00
2013-12-27,32,23,10,30,22,9,99,95,92,30.22,30.15,0,0,1,0.11
2013-12-28,35,27,17,32,25,16,100,94,88,30.10,29.95,2,0,3,0.05
2013-12-29,33,28,16,33,28,15,100,99,96,30.03,29.58,8,2,11,0.36
2013-12-30,32,20,6,31,18,2,99,93,85,30.19,29.63,6,2,8,0.06
2013-12-31,9,2,-7,6,0,-9,92,89,81,30.19,30.06,7,1,8,0.00
2014-1-1,21,6,-12,16,3,-15,94,87,73,30.43,30.25,6,1,10,0.00
2014-1-2,-2,-4,-7,-5,-7,-10,89,88,86,30.47,30.07,14,9,19,0.00